Total_Precipitation_Accumulation
0.00 0.00 0.00 0.00 0.00 0.00 0.00 0.00 0.00 0.00 0.00 0.00 0.00 0.00 0.00 0.00 0.00 0.00 0.00 0.00 0.00 0.00 0.01 0.02 0.03 0.04 0.07 0.10 0.13 0.14 0.14 0.14 0.14 0.15 0.15 0.16 0.16 0.17 0.18 0.18 0.19 0.19 0.20
0.01 0.00 0.00 0.00 0.00 0.00 0.00 0.00 0.00 0.00 0.00 0.00 0.00 0.00 0.00 0.00 0.00 0.00 0.00 0.00 0.00 0.00 0.00 0.01 0.02 0.04 0.06 0.09 0.13 0.15 0.16 0.16 0.15 0.16 0.17 0.18 0.18 0.19 0.20 0.21 0.22 0.23 0.23
0.01 0.01 0.00 0.00 0.00 0.00 0.00 0.00 0.00 0.00 0.00 0.00 0.00 0.00 0.00 0.00 0.00 0.00 0.00 0.00 0.00 0.00 0.00 0.01 0.02 0.04 0.05 0.08 0.11 0.15 0.17 0.18 0.18 0.19 0.20 0.21 0.22 0.22 0.24 0.26 0.27 0.28 0.30
0.02 0.01 0.01 0.00 0.00 0.00 0.00 0.00 0.00 0.00 0.00 0.00 0.00 0.00 0.00 0.00 0.00 0.00 0.00 0.00 0.00 0.00 0.00 0.00 0.01 0.02 0.04 0.06 0.10 0.15 0.17 0.19 0.19 0.19 0.20 0.21 0.23 0.25 0.28 0.31 0.34 0.37 0.40
0.04 0.03 0.02 0.02 0.01 0.01 0.00 0.00 0.00 0.00 0.00 0.00 0.00 0.00 0.00 0.00 0.00 0.00 0.00 0.00 0.00 0.00 0.00 0.00 0.01 0.02 0.03 0.04 0.07 0.12 0.19 0.22 0.22 0.21 0.21 0.22 0.24 0.27 0.30 0.33 0.38 0.43 0.50
0.10 0.07 0.05 0.04 0.03 0.02 0.02 0.02 0.01 0.01 0.01 0.01 0.01 0.01 0.00 0.00 0.00 0.00 0.00 0.00 0.00 0.00 0.00 0.01 0.01 0.01 0.01 0.03 0.05 0.09 0.16 0.21 0.23 0.24 0.24 0.25 0.26 0.28 0.31 0.36 0.42 0.49 0.60
0.20 0.13 0.10 0.08 0.06 0.05 0.04 0.03 0.03 0.02 0.02 0.02 0.02 0.01 0.00 0.00 0.00 0.00 0.00 0.00 0.01 0.00 0.00 0.01 0.01 0.01 0.02 0.03 0.04 0.06 0.10 0.16 0.24 0.29 0.31 0.31 0.31 0.33 0.38 0.44 0.51 0.59 0.68
0.31 0.24 0.17 0.13 0.11 0.09 0.08 0.07 0.07 0.06 0.04 0.04 0.05 0.07 0.03 0.01 0.00 0.01 0.01 0.01 0.01 0.01 0.01 0.01 0.02 0.02 0.03 0.03 0.03 0.04 0.05 0.08 0.17 0.31 0.40 0.42 0.44 0.46 0.50 0.58 0.67 0.75 0.81
0.54 0.44 0.39 0.30 0.24 0.18 0.14 0.14 0.14 0.12 0.11 0.09 0.09 0.14 0.13 0.07 0.04 0.02 0.02 0.02 0.03 0.03 0.03 0.04 0.04 0.04 0.04 0.04 0.05 0.05 0.07 0.09 0.12 0.24 0.41 0.54 0.60 0.67 0.75 0.84 0.91 0.99 1.02
0.72 0.67 0.58 0.48 0.39 0.33 0.27 0.27 0.25 0.23 0.22 0.20 0.18 0.17 0.19 0.19 0.20 0.13 0.06 0.05 0.05 0.05 0.06 0.06 0.06 0.06 0.07 0.07 0.09 0.12 0.14 0.17 0.20 0.26 0.39 0.56 0.72 0.89 1.07 1.19 1.29 1.34 1.31
0.72 0.71 0.65 0.59 0.49 0.45 0.43 0.43 0.40 0.39 0.37 0.35 0.33 0.31 0.31 0.30 0.31 0.35 0.22 0.11 0.10 0.10 0.11 0.11 0.11 0.12 0.13 0.14 0.16 0.19 0.25 0.28 0.31 0.35 0.47 0.66 0.88 1.13 1.35 1.51 1.59 1.55 1.49
0.70 0.67 0.65 0.62 0.60 0.55 0.52 0.52 0.55 0.53 0.51 0.49 0.47 0.46 0.49 0.48 0.44 0.50 0.47 0.31 0.26 0.22 0.21 0.22 0.22 0.22 0.22 0.23 0.24 0.27 0.28 0.30 0.35 0.43 0.59 0.80 0.97 1.10 1.25 1.43 1.56 1.60 1.60
0.62 0.61 0.66 0.66 0.65 0.64 0.65 0.65 0.61 0.57 0.57 0.55 0.55 0.55 0.57 0.57 0.56 0.61 0.65 0.55 0.45 0.35 0.29 0.28 0.29 0.31 0.31 0.33 0.33 0.38 0.37 0.39 0.42 0.46 0.56 0.78 0.90 0.92 0.94 1.04 1.25 1.41 1.52
0.57 0.64 0.66 0.65 0.63 0.61 0.61 0.61 0.57 0.55 0.57 0.59 0.60 0.62 0.61 0.59 0.62 0.66 0.72 0.77 0.68 0.50 0.39 0.34 0.35 0.39 0.41 0.43 0.44 0.47 0.41 0.44 0.43 0.45 0.50 0.59 0.64 0.63 0.64 0.70 0.84 1.01 1.17
0.47 0.49 0.51 0.53 0.54 0.53 0.54 0.57 0.54 0.52 0.53 0.54 0.56 0.60 0.61 0.58 0.60 0.64 0.70 0.82 0.93 0.83 0.60 0.46 0.45 0.45 0.48 0.48 0.49 0.46 0.40 0.42 0.41 0.39 0.39 0.39 0.40 0.43 0.46 0.51 0.61 0.72 0.84
0.36 0.37 0.37 0.38 0.39 0.40 0.42 0.45 0.46 0.47 0.49 0.47 0.47 0.50 0.51 0.52 0.55 0.61 0.68 0.75 0.87 0.96 0.80 0.53 0.45 0.43 0.44 0.42 0.42 0.38 0.32 0.37 0.35 0.33 0.33 0.34 0.35 0.37 0.39 0.42 0.48 0.54 0.62
0.25 0.26 0.26 0.26 0.26 0.27 0.28 0.30 0.33 0.35 0.39 0.42 0.44 0.46 0.49 0.51 0.54 0.56 0.59 0.64 0.71 0.80 0.79 0.56 0.45 0.44 0.42 0.36 0.33 0.31 0.27 0.26 0.24 0.27 0.29 0.30 0.32 0.35 0.37 0.39 0.42 0.46 0.51
0.19 0.18 0.18 0.17 0.17 0.17 0.17 0.18 0.21 0.24 0.29 0.34 0.37 0.43 0.46 0.49 0.52 0.54 0.55 0.57 0.58 0.61 0.68 0.60 0.43 0.39 0.35 0.34 0.35 0.33 0.28 0.25 0.21 0.23 0.26 0.29 0.32 0.34 0.35 0.38 0.42 0.47 0.51
0.12 0.12 0.12 0.12 0.12 0.12 0.13 0.14 0.16 0.20 0.23 0.26 0.29 0.34 0.38 0.42 0.42 0.41 0.40 0.42 0.43 0.48 0.55 0.57 0.45 0.38 0.33 0.31 0.32 0.30 0.26 0.23 0.20 0.22 0.27 0.29 0.31 0.33 0.36 0.40 0.44 0.47 0.50
0.10 0.09 0.09 0.09 0.10 0.12 0.14 0.16 0.19 0.21 0.23 0.24 0.26 0.28 0.30 0.30 0.29 0.29 0.30 0.32 0.38 0.44 0.46 0.51 0.48 0.39 0.35 0.30 0.30 0.26 0.23 0.21 0.21 0.22 0.27 0.30 0.33 0.37 0.39 0.41 0.44 0.47 0.49
0.10 0.12 0.13 0.13 0.13 0.14 0.16 0.19 0.21 0.23 0.24 0.24 0.24 0.22 0.21 0.22 0.22 0.22 0.26 0.31 0.38 0.45 0.53 0.58 0.55 0.48 0.40 0.33 0.29 0.29 0.34 0.33 0.31 0.27 0.28 0.30 0.34 0.39 0.42 0.45 0.47 0.48 0.49
0.13 0.15 0.17 0.20 0.21 0.22 0.28 0.26 0.23 0.23 0.24 0.23 0.22 0.20 0.20 0.20 0.18 0.20 0.23 0.31 0.44 0.57 0.67 0.71 0.68 0.58 0.43 0.37 0.37 0.43 0.51 0.60 0.53 0.32 0.34 0.36 0.38 0.44 0.45 0.46 0.53 0.56 0.56
0.23 0.24 0.24 0.26 0.28 0.33 0.34 0.28 0.23 0.19 0.19 0.18 0.17 0.15 0.14 0.13 0.14 0.13 0.16 0.27 0.37 0.46 0.54 0.56 0.54 0.43 0.39 0.38 0.51 0.67 0.70 0.74 0.60 0.38 0.44 0.50 0.42 0.43 0.44 0.49 0.58 0.58 0.55
0.31 0.32 0.32 0.29 0.28 0.29 0.27 0.21 0.18 0.15 0.15 0.14 0.12 0.11 0.11 0.10 0.10 0.14 0.21 0.29 0.24 0.21 0.25 0.30 0.34 0.35 0.39 0.45 0.62 0.86 0.93 0.91 0.72 0.55 0.51 0.56 0.42 0.39 0.41 0.44 0.52 0.51 0.47
0.35 0.32 0.31 0.30 0.28 0.27 0.22 0.17 0.14 0.12 0.11 0.10 0.08 0.08 0.08 0.07 0.10 0.22 0.33 0.36 0.24 0.15 0.17 0.25 0.34 0.37 0.38 0.41 0.49 0.75 0.94 1.01 0.85 0.55 0.47 0.55 0.51 0.47 0.46 0.43 0.45 0.49 0.47
0.32 0.30 0.26 0.23 0.21 0.20 0.18 0.13 0.11 0.09 0.09 0.08 0.07 0.06 0.08 0.09 0.16 0.28 0.32 0.34 0.27 0.18 0.22 0.25 0.27 0.28 0.27 0.30 0.40 0.58 1.01 1.41 1.20 0.82 0.50 0.61 0.63 0.67 0.78 0.49 0.42 0.45 0.45